Previsão horária em Jurkow

Hoje, 23 Junho, Quarta-feira

Tempo Temperatura Precipitação Vento Pressão Humidade
00:00 +21°C° 0 mm 2 m/s 739 mmHg 93%
01:00 +20°C° 0 mm 2 m/s 739 mmHg 95%
02:00 +20°C° 0 mm 2 m/s 739 mmHg 96%
03:00 +20°C° 0 mm 2 m/s 740 mmHg 96%
04:00 +20°C° 0 mm 2 m/s 740 mmHg 97%
05:00 +20°C° 0 mm 2 m/s 740 mmHg 95%
06:00 +21°C° 0 mm 2 m/s 741 mmHg 92%
07:00 +23°C° 0 mm 2 m/s 741 mmHg 90%
08:00 +23°C° 0 mm 2 m/s 741 mmHg 88%
09:00 +24°C° 0 mm 2 m/s 742 mmHg 86%
10:00 +24°C° 0 mm 2 m/s 742 mmHg 84%
11:00 +25°C° 0 mm 1 m/s 742 mmHg 80%
12:00 +26°C° 0 mm 1 m/s 742 mmHg 76%
13:00 +27°C° 0 mm 1 m/s 742 mmHg 72%
14:00 +27°C° 0.1 mm 1 m/s 742 mmHg 72%
15:00 +28°C° 0.1 mm 1 m/s 742 mmHg 72%
16:00 +28°C° 0.1 mm 1 m/s 742 mmHg 72%
17:00 +27°C° 0.1 mm 1 m/s 742 mmHg 77%
18:00 +26°C° 0.1 mm 1 m/s 742 mmHg 82%
19:00 +25°C° 0.1 mm 1 m/s 742 mmHg 88%
20:00 +24°C° 0.3 mm 1 m/s 742 mmHg 90%
21:00 +23°C° 0.3 mm 1 m/s 742 mmHg 93%
22:00 +22°C° 0.3 mm 1 m/s 742 mmHg 95%
23:00 +22°C° 0 mm 1 m/s 742 mmHg 96%

Amanhã, 24 Junho, Quinta-feira

Tempo Temperatura Precipitação Vento Pressão Humidade
00:00 +21°C° 0 mm 1 m/s 742 mmHg 96%
01:00 +21°C° 0 mm 1 m/s 742 mmHg 97%
02:00 +21°C° 0 mm 1 m/s 742 mmHg 97%
03:00 +18°C° 0 mm 0 m/s 742 mmHg 97%
04:00 +18°C° 0 mm 0 m/s 741 mmHg 97%
05:00 +22°C° 0 mm 1 m/s 741 mmHg 93%
06:00 +23°C° 0 mm 1 m/s 741 mmHg 89%
07:00 +25°C° 0 mm 1 m/s 741 mmHg 85%
08:00 +27°C° 0 mm 1 m/s 741 mmHg 77%
09:00 +29°C° 0 mm 2 m/s 741 mmHg 68%
10:00 +31°C° 0 mm 2 m/s 741 mmHg 59%
11:00 +32°C° 0.1 mm 2 m/s 741 mmHg 56%
12:00 +34°C° 0.1 mm 2 m/s 740 mmHg 53%
13:00 +34°C° 0.1 mm 2 m/s 740 mmHg 50%
14:00 +30°C° 3.1 mm 3 m/s 740 mmHg 63%
15:00 +27°C° 3.1 mm 4 m/s 740 mmHg 76%
16:00 +23°C° 3.1 mm 5 m/s 740 mmHg 89%
17:00 +22°C° 1.1 mm 4 m/s 740 mmHg 90%
18:00 +21°C° 1.1 mm 3 m/s 740 mmHg 90%
19:00 +21°C° 1.1 mm 2 m/s 740 mmHg 91%
20:00 +20°C° 0.5 mm 2 m/s 740 mmHg 92%
21:00 +21°C° 0.5 mm 1 m/s 739 mmHg 92%
22:00 +21°C° 0.5 mm 1 m/s 739 mmHg 92%
23:00 +20°C° 0 mm 1 m/s 739 mmHg 93%

Depois de amanhã, 25 Junho, Sexta-feira

Tempo Temperatura Precipitação Vento Pressão Humidade
00:00 +20°C° 0 mm 1 m/s 739 mmHg 93%
01:00 +20°C° 0 mm 1 m/s 739 mmHg 93%
02:00 +20°C° 0 mm 1 m/s 739 mmHg 94%
03:00 +17°C° 0 mm 0 m/s 739 mmHg 95%
04:00 +17°C° 0 mm 0 m/s 739 mmHg 95%
05:00 +20°C° 0 mm 1 m/s 739 mmHg 94%
06:00 +20°C° 0 mm 2 m/s 739 mmHg 92%
07:00 +21°C° 0 mm 2 m/s 739 mmHg 90%
08:00 +21°C° 0 mm 3 m/s 740 mmHg 89%
09:00 +20°C° 0 mm 3 m/s 740 mmHg 88%
10:00 +20°C° 0 mm 4 m/s 740 mmHg 87%
11:00 +21°C° 0 mm 4 m/s 740 mmHg 84%
12:00 +21°C° 0 mm 4 m/s 741 mmHg 80%
13:00 +22°C° 0 mm 4 m/s 741 mmHg 77%
14:00 +22°C° 0 mm 4 m/s 740 mmHg 74%
15:00 +23°C° 0 mm 4 m/s 740 mmHg 71%
16:00 +25°C° 0 mm 4 m/s 740 mmHg 69%
17:00 +24°C° 0 mm 3 m/s 740 mmHg 73%
18:00 +21°C° 0 mm 3 m/s 740 mmHg 78%
19:00 +20°C° 0 mm 3 m/s 740 mmHg 82%
20:00 +20°C° 0 mm 2 m/s 741 mmHg 84%
21:00 +20°C° 0 mm 1 m/s 741 mmHg 85%
22:00 +19°C° 0 mm 1 m/s 742 mmHg 87%
23:00 +18°C° 0 mm 1 m/s 742 mmHg 88%

26 Junho, Sábado

Tempo Temperatura Precipitação Vento Pressão Humidade
00:00 +18°C° 0 mm 1 m/s 742 mmHg 89%
01:00 +16°C° 0 mm 1 m/s 742 mmHg 90%
02:00 +16°C° 0 mm 1 m/s 742 mmHg 91%
03:00 +16°C° 0 mm 1 m/s 742 mmHg 92%
04:00 +16°C° 0 mm 1 m/s 742 mmHg 92%
05:00 +17°C° 0 mm 2 m/s 742 mmHg 89%
06:00 +18°C° 0 mm 2 m/s 743 mmHg 85%
07:00 +19°C° 0 mm 3 m/s 743 mmHg 82%
08:00 +20°C° 0 mm 3 m/s 743 mmHg 77%
09:00 +20°C° 0 mm 3 m/s 743 mmHg 72%
10:00 +21°C° 0 mm 2 m/s 743 mmHg 68%
11:00 +23°C° 0 mm 2 m/s 743 mmHg 65%
12:00 +24°C° 0 mm 2 m/s 743 mmHg 62%
13:00 +24°C° 0 mm 2 m/s 743 mmHg 59%
14:00 +24°C° 0 mm 2 m/s 743 mmHg 59%
15:00 +24°C° 0 mm 2 m/s 743 mmHg 59%
16:00 +24°C° 0 mm 2 m/s 743 mmHg 59%
17:00 +23°C° 0 mm 1 m/s 743 mmHg 64%
18:00 +22°C° 0 mm 1 m/s 743 mmHg 70%
19:00 +19°C° 0 mm 0 m/s 743 mmHg 76%
20:00 +18°C° 0 mm 0 m/s 743 mmHg 79%
21:00 +17°C° 0 mm 0 m/s 743 mmHg 82%
22:00 +16°C° 0 mm 0 m/s 743 mmHg 85%
23:00 +15°C° 0 mm 0 m/s 743 mmHg 86%

27 Junho, Domingo

Tempo Temperatura Precipitação Vento Pressão Humidade
00:00 +15°C° 0 mm 0 m/s 744 mmHg 87%
01:00 +14°C° 0 mm 0 m/s 744 mmHg 88%
02:00 +14°C° 0 mm 0 m/s 744 mmHg 89%
03:00 +14°C° 0 mm 0 m/s 744 mmHg 90%
04:00 +14°C° 0 mm 0 m/s 744 mmHg 90%
05:00 +16°C° 0 mm 0 m/s 744 mmHg 84%
06:00 +18°C° 0 mm 0 m/s 744 mmHg 78%
07:00 +19°C° 0 mm 0 m/s 744 mmHg 72%
08:00 +23°C° 0 mm 1 m/s 744 mmHg 66%
09:00 +24°C° 0 mm 1 m/s 744 mmHg 61%
10:00 +25°C° 0 mm 2 m/s 744 mmHg 56%
11:00 +26°C° 0 mm 2 m/s 744 mmHg 54%
12:00 +27°C° 0 mm 2 m/s 744 mmHg 52%
13:00 +27°C° 0 mm 2 m/s 743 mmHg 51%
14:00 +27°C° 0 mm 2 m/s 743 mmHg 51%
15:00 +27°C° 0 mm 2 m/s 743 mmHg 52%
16:00 +27°C° 0 mm 2 m/s 743 mmHg 53%
17:00 +26°C° 0 mm 2 m/s 743 mmHg 60%
18:00 +24°C° 0 mm 1 m/s 743 mmHg 68%
19:00 +23°C° 0 mm 1 m/s 743 mmHg 75%
20:00 +22°C° 0 mm 1 m/s 743 mmHg 78%
21:00 +20°C° 0 mm 1 m/s 743 mmHg 80%
22:00 +19°C° 0 mm 1 m/s 743 mmHg 82%
23:00 +19°C° 0 mm 1 m/s 743 mmHg 83%

28 Junho, Segunda-feira

Tempo Temperatura Precipitação Vento Pressão Humidade
00:00 +18°C° 0 mm 1 m/s 743 mmHg 85%
01:00 +18°C° 0 mm 1 m/s 744 mmHg 86%
02:00 +18°C° 0 mm 1 m/s 743 mmHg 86%
03:00 +18°C° 0 mm 1 m/s 743 mmHg 86%
04:00 +16°C° 0 mm 1 m/s 743 mmHg 86%
05:00 +20°C° 0 mm 1 m/s 743 mmHg 80%
06:00 +22°C° 0 mm 1 m/s 744 mmHg 73%
07:00 +24°C° 0 mm 1 m/s 744 mmHg 67%
08:00 +25°C° 0 mm 1 m/s 744 mmHg 62%
09:00 +27°C° 0 mm 1 m/s 744 mmHg 57%
10:00 +29°C° 0 mm 2 m/s 744 mmHg 52%
11:00 +29°C° 0 mm 2 m/s 744 mmHg 50%
12:00 +30°C° 0 mm 2 m/s 743 mmHg 49%
13:00 +30°C° 0 mm 2 m/s 743 mmHg 47%
14:00 +30°C° 0 mm 2 m/s 743 mmHg 49%
15:00 +30°C° 0 mm 2 m/s 743 mmHg 50%
16:00 +30°C° 0 mm 2 m/s 743 mmHg 51%
17:00 +28°C° 0 mm 2 m/s 743 mmHg 60%
18:00 +27°C° 0 mm 2 m/s 742 mmHg 68%
19:00 +25°C° 0 mm 2 m/s 742 mmHg 77%
20:00 +24°C° 0 mm 2 m/s 742 mmHg 78%
21:00 +23°C° 0 mm 2 m/s 742 mmHg 80%
22:00 +22°C° 0 mm 1 m/s 742 mmHg 81%
23:00 +21°C° 0 mm 1 m/s 742 mmHg 82%
Mostrar mais

Necessitamos do seu Consentimento

A Meteoprog e os seus Fornecedores de Serviços podem armazenar e aceder a dados pessoais como cookies, identificadores do dispositivo ou outras tecnologias semelhantes existentes no seu dispositivo e processar estes dados para personalizar conteúdos e anúncios, assim como funcionalidades nas redes sociais e análise de tráfego.

  • Armazenar e/ou aceder a informações no seu dispositivo

    Os cookies, identificadores do dispositivo ou outras informações podem ser armazenados ou acedidos no seu dispositivo, para os fins acima indicados.

  • Anúncios e conteúdos personalizados, medição de anúncios e conteúdos, dados sobre o público-alvo e desenvolvimento de produtos

    Os anúncios e os conteúdos podem ser personalizados com base num perfil. Podem ser adicionados dados adicionais para uma maior personalização dos anúncios e dos conteúdos. A eficácia dos anúncios e dos conteúdos pode ser medida. Podem ser obtidas informações sobre o público que visualizou os anúncios e os conteúdos. Estes dados podem ser usados para desenvolver ou melhorar sistemas, softwares ou a experiência do utilizador.

Ao clicar em "Eu concordo”, permitirá o uso de cookies, identificadores do dispositivo e web beacons mencionados ou outras tecnologias semelhantes. As configurações do navegador do seu dispositivo podem ser alteradas.

Para certos fins, podem ser invocados interesses legítimos ao invés de consentimento. Pode ler mais informação sobre este assunto na nossa Política de Privacidade e Cookies.